TimeCST,TemperatureF,Dew PointF,Humidity,Sea Level PressureIn,VisibilityMPH,Wind Direction,Wind SpeedMPH,Gust SpeedMPH,PrecipitationIn,Events,Conditions,WindDirDegrees,DateUTC
12:15 AM,42.8,32.0,66,29.89,10.0,Calm,Calm,-,N/A,,Clear,0,2013-02-27 06:15:00
12:35 AM,42.8,32.0,66,29.88,10.0,Calm,Calm,-,N/A,,Clear,0,2013-02-27 06:35:00
12:55 AM,42.8,32.0,66,29.88,10.0,Calm,Calm,-,N/A,,Clear,0,2013-02-27 06:55:00
1:15 AM,39.2,32.0,75,29.88,10.0,Calm,Calm,-,N/A,,Clear,0,2013-02-27 07:15:00
1:35 AM,41.0,32.0,70,29.88,10.0,Calm,Calm,-,N/A,,Clear,0,2013-02-27 07:35:00
1:55 AM,39.2,32.0,75,29.89,10.0,Calm,Calm,-,N/A,,Clear,0,2013-02-27 07:55:00
2:15 AM,39.2,32.0,75,29.89,10.0,Calm,Calm,-,N/A,,Clear,0,2013-02-27 08:15:00
2:55 AM,39.2,32.0,75,29.90,10.0,Calm,Calm,-,N/A,,Clear,0,2013-02-27 08:55:00
3:15 AM,42.8,30.2,61,29.94,10.0,NW,8.1,-,N/A,,Clear,310,2013-02-27 09:15:00
3:35 AM,44.6,28.4,53,29.93,10.0,Calm,Calm,-,N/A,,Clear,0,2013-02-27 09:35:00
3:55 AM,39.2,28.4,65,29.92,10.0,Calm,Calm,-,N/A,,Clear,0,2013-02-27 09:55:00
4:15 AM,39.2,28.4,65,29.93,10.0,Calm,Calm,-,N/A,,Clear,0,2013-02-27 10:15:00
4:35 AM,37.4,28.4,70,29.94,10.0,West,4.6,-,N/A,,Clear,260,2013-02-27 10:35:00
5:15 AM,44.6,23.0,43,29.96,10.0,West,9.2,-,N/A,,Clear,280,2013-02-27 11:15:00
5:35 AM,44.6,23.0,43,29.98,10.0,WNW,9.2,-,N/A,,Clear,290,2013-02-27 11:35:00
5:55 AM,46.4,26.6,46,29.99,10.0,WNW,12.7,21.9,N/A,,Clear,300,2013-02-27 11:55:00
6:15 AM,46.4,28.4,50,30.02,10.0,NW,15.0,25.3,N/A,,Clear,310,2013-02-27 12:15:00
6:35 AM,42.8,28.4,57,30.05,10.0,NW,13.8,23.0,N/A,,Clear,320,2013-02-27 12:35:00
6:55 AM,42.8,30.2,61,30.08,10.0,NW,13.8,21.9,N/A,,Clear,320,2013-02-27 12:55:00
7:15 AM,39.2,32.0,75,30.10,10.0,NNW,10.4,19.6,N/A,,Clear,330,2013-02-27 13:15:00
7:35 AM,39.2,32.0,75,30.12,10.0,NW,15.0,18.4,N/A,,Clear,320,2013-02-27 13:35:00
7:55 AM,39.2,32.0,75,30.14,10.0,NNW,3.5,-,N/A,,Clear,330,2013-02-27 13:55:00
8:15 AM,42.8,32.0,66,30.16,10.0,NW,4.6,-,N/A,,Clear,310,2013-02-27 14:15:00
8:35 AM,44.6,32.0,61,30.16,10.0,NW,8.1,-,N/A,,Clear,320,2013-02-27 14:35:00
8:55 AM,46.4,32.0,57,30.17,10.0,NNW,11.5,-,N/A,,Clear,340,2013-02-27 14:55:00
9:15 AM,48.2,32.0,54,30.19,10.0,North,16.1,-,N/A,,Clear,350,2013-02-27 15:15:00
9:35 AM,48.2,32.0,54,30.19,10.0,North,15.0,-,N/A,,Clear,350,2013-02-27 15:35:00
9:55 AM,48.2,32.0,54,30.20,10.0,NNW,12.7,-,N/A,,Clear,340,2013-02-27 15:55:00
10:15 AM,51.8,32.0,47,30.21,10.0,North,17.3,23.0,N/A,,Clear,10,2013-02-27 16:15:00
10:55 AM,53.6,24.8,33,30.21,10.0,North,16.1,23.0,N/A,,Clear,350,2013-02-27 16:55:00
11:15 AM,55.4,26.6,33,30.20,10.0,North,18.4,24.2,N/A,,Clear,360,2013-02-27 17:15:00
11:35 AM,55.4,26.6,33,30.20,10.0,NNW,18.4,23.0,N/A,,Clear,340,2013-02-27 17:35:00
11:55 AM,55.4,26.6,33,30.21,10.0,North,17.3,23.0,N/A,,Clear,350,2013-02-27 17:55:00
12:15 PM,55.4,26.6,33,30.20,10.0,North,15.0,21.9,N/A,,Clear,360,2013-02-27 18:15:00
12:35 PM,57.2,24.8,29,30.20,10.0,NNW,13.8,25.3,N/A,,Clear,340,2013-02-27 18:35:00
12:55 PM,57.2,23.0,27,30.19,10.0,NW,13.8,23.0,N/A,,Clear,320,2013-02-27 18:55:00
1:15 PM,59.0,21.2,23,30.19,10.0,NNW,15.0,21.9,N/A,,Clear,340,2013-02-27 19:15:00
1:35 PM,60.8,21.2,22,30.18,10.0,North,17.3,24.2,N/A,,Clear,360,2013-02-27 19:35:00
1:55 PM,59.0,23.0,25,30.18,10.0,NNW,16.1,-,N/A,,Clear,330,2013-02-27 19:55:00
2:15 PM,60.8,26.6,27,30.18,10.0,NNW,13.8,25.3,N/A,,Clear,340,2013-02-27 20:15:00
2:35 PM,60.8,26.6,27,30.18,10.0,North,13.8,23.0,N/A,,Clear,10,2013-02-27 20:35:00
2:55 PM,60.8,28.4,29,30.17,10.0,North,12.7,-,N/A,,Clear,350,2013-02-27 20:55:00
3:15 PM,60.8,28.4,29,30.17,10.0,NNW,15.0,23.0,N/A,,Clear,340,2013-02-27 21:15:00
3:35 PM,60.8,28.4,29,30.17,10.0,North,16.1,24.2,N/A,,Clear,360,2013-02-27 21:35:00
3:55 PM,60.8,28.4,29,30.17,10.0,North,16.1,20.7,N/A,,Clear,350,2013-02-27 21:55:00
4:15 PM,60.8,26.6,27,30.18,10.0,North,17.3,24.2,N/A,,Clear,360,2013-02-27 22:15:00
4:35 PM,59.0,26.6,29,30.17,10.0,North,17.3,-,N/A,,Clear,360,2013-02-27 22:35:00
4:55 PM,59.0,23.0,25,30.18,10.0,North,11.5,-,N/A,,Clear,350,2013-02-27 22:55:00
5:15 PM,57.2,23.0,27,30.18,10.0,North,13.8,20.7,N/A,,Clear,360,2013-02-27 23:15:00
5:35 PM,57.2,21.2,25,30.19,10.0,NNW,13.8,-,N/A,,Clear,340,2013-02-27 23:35:00
5:55 PM,57.2,19.4,23,30.20,10.0,North,12.7,18.4,N/A,,Clear,350,2013-02-27 23:55:00
6:15 PM,55.4,17.6,23,30.20,10.0,North,10.4,-,N/A,,Clear,360,2013-02-28 00:15:00
6:35 PM,51.8,17.6,26,30.21,10.0,North,8.1,-,N/A,,Clear,350,2013-02-28 00:35:00
7:15 PM,48.2,17.6,30,30.23,10.0,Calm,Calm,-,N/A,,Clear,0,2013-02-28 01:15:00
7:35 PM,48.2,17.6,30,30.23,10.0,Calm,Calm,-,N/A,,Clear,0,2013-02-28 01:35:00
7:55 PM,46.4,21.2,37,30.24,10.0,NNW,3.5,-,N/A,,Clear,340,2013-02-28 01:55:00
8:15 PM,44.6,19.4,37,30.25,10.0,Calm,Calm,-,N/A,,Clear,0,2013-02-28 02:15:00
8:55 PM,42.8,21.2,42,30.26,10.0,North,6.9,-,N/A,,Clear,350,2013-02-28 02:55:00
9:15 PM,42.8,21.2,42,30.27,10.0,NNW,6.9,-,N/A,,Clear,340,2013-02-28 03:15:00
9:35 PM,42.8,21.2,42,30.27,10.0,Calm,Calm,-,N/A,,Clear,0,2013-02-28 03:35:00
9:55 PM,39.2,21.2,49,30.28,10.0,Calm,Calm,-,N/A,,Clear,0,2013-02-28 03:55:00
10:15 PM,39.2,21.2,49,30.28,10.0,Calm,Calm,-,N/A,,Clear,0,2013-02-28 04:15:00
10:35 PM,39.2,21.2,49,30.28,10.0,NNW,6.9,-,N/A,,Clear,340,2013-02-28 04:35:00
10:55 PM,37.4,21.2,52,30.27,10.0,North,8.1,-,N/A,,Clear,360,2013-02-28 04:55:00
11:15 PM,37.4,21.2,52,30.28,10.0,North,8.1,-,N/A,,Clear,360,2013-02-28 05:15:00
11:35 PM,37.4,21.2,52,30.29,10.0,North,6.9,-,N/A,,Clear,350,2013-02-28 05:35:00